FW6591 Weather Reports


time (UTC)temp
C
wind
direction
speed
KPH
gust
KPH
rain 1hr
cm
rain 24hr
cm
rain mn
cm
humidity
%
barometer
mb
20260507210105 10 332 1.6 4.8 0.00 0.05 0.05 87 1024.9
20260507204544 10 340 1.6 4.8 0.00 0.05 0.05 87 1024.8
20260507203043 11 252 0.0 4.8 0.00 0.05 0.05 86 1024.7
20260507201543 11 342 0.0 8.0 0.00 0.05 0.05 84 1024.8
20260507200051 11 315 3.2 12.9 0.00 0.05 0.05 84 1024.9
20260507194555 11 0 1.6 4.8 0.00 0.08 0.05 85 1024.9
20260507193047 11 305 0.0 3.2 0.00 0.08 0.05 86 1024.7
20260507191547 11 0 0.0 3.2 0.00 0.08 0.05 86 1024.5
20260507184545 11 0 0.0 6.4 0.00 0.08 0.05 85 1024.7
20260507183110 11 305 0.0 3.2 0.00 0.08 0.05 86 1024.7
20260507181545 11 0 0.0 3.2 0.00 0.08 0.05 86 1024.7
20260507180043 11 307 3.2 4.8 0.00 0.08 0.05 87 1024.6
20260507174601 11 360 0.0 8.0 0.00 0.15 0.05 86 1024.5
20260507173047 11 308 3.2 6.4 0.00 0.15 0.05 85 1024.4
20260507171549 11 360 3.2 8.0 0.00 0.15 0.05 84 1024.2
20260507170046 11 323 3.2 11.3 0.00 0.15 0.05 82 1024.1
20260507164603 11 338 1.6 4.8 0.00 0.46 0.05 82 1024.0
20260507163047 11 315 3.2 6.4 0.00 0.46 0.05 80 1023.8
20260507161550 11 308 0.0 3.2 0.00 0.46 0.05 82 1023.4
20260507160041 11 0 0.0 4.8 0.03 0.46 0.05 81 1023.2
20260507154548 11 0 1.6 4.8 0.03 0.53 0.05 80 1023.1
20260507153045 11 325 1.6 6.4 0.05 0.53 0.05 80 1022.8
20260507151546 12 273 1.6 6.4 0.05 0.53 0.05 79 1023.0
20260507150047 11 286 1.6 19.3 0.00 0.48 0.00 78 1022.8
20260507144539 12 209 8.0 12.9 0.00 0.89 0.00 76 1022.9
20260507143047 13 238 14.5 25.7 0.00 0.86 0.00 67 1022.7
20260507141544 14 233 8.0 12.9 0.00 0.86 0.00 62 1022.5
20260507140045 14 220 9.7 17.7 0.00 0.86 0.00 60 1022.4
20260507134549 14 215 6.4 14.5 0.00 1.02 0.00 61 1022.3
20260507133050 14 224 6.4 12.9 0.00 1.02 0.00 62 1022.2
20260507131545 13 221 9.7 22.5 0.00 1.02 0.00 63 1022.2
20260507130046 14 237 12.9 22.5 0.00 1.02 0.00 62 1022.0
20260507124551 13 234 14.5 20.9 0.00 1.30 0.00 65 1022.1
20260507123042 14 276 19.3 27.4 0.00 1.30 0.00 64 1021.8
20260507121538 13 252 12.9 22.5 0.00 1.30 0.00 66 1021.7
20260507120044 13 228 8.0 19.3 0.00 1.30 0.00 68 1021.8
20260507114603 13 236 14.5 29.0 0.00 1.37 0.00 68 1021.9
20260507113103 13 213 16.1 30.6 0.00 1.37 0.00 67 1021.9
20260507111549 13 253 20.9 29.0 0.00 1.37 0.00 67 1022.0
20260507110042 13 217 20.9 35.4 0.00 1.37 0.00 66 1022.0
20260507104545 13 189 12.9 29.0 0.00 1.40 0.00 67 1022.3
20260507103050 13 202 14.5 27.4 0.00 1.40 0.00 66 1022.2
20260507101545 13 237 17.7 27.4 0.00 1.40 0.00 66 1022.2
20260507100051 13 222 19.3 27.4 0.00 1.40 0.00 65 1022.3
20260507094549 13 230 11.3 29.0 0.00 1.42 0.00 68 1022.3
20260507093051 13 236 12.9 30.6 0.00 1.42 0.00 68 1022.2
20260507091608 13 240 12.9 27.4 0.00 1.42 0.00 68 1022.2
20260507090044 13 188 11.3 29.0 0.00 1.42 0.00 68 1022.2
20260507084604 13 224 16.1 32.2 0.00 1.42 0.00 69 1022.2
20260507083048 12 211 22.5 35.4 0.00 1.42 0.00 69 1022.1
20260507081557 12 238 20.9 32.2 0.00 1.42 0.00 69 1022.1
20260507080052 12 259 9.7 25.7 0.00 1.42 0.00 71 1022.1
20260507074549 12 239 20.9 33.8 0.00 1.42 0.00 71 1021.8
20260507073104 12 213 17.7 32.2 0.00 1.42 0.00 71 1021.7
20260507071539 12 219 20.9 35.4 0.00 1.42 0.00 69 1021.4
20260507070049 12 226 24.1 40.2 0.00 1.42 0.00 69 1021.3
20260507064548 12 211 14.5 24.1 0.00 1.68 0.00 72 1021.0
20260507063044 11 193 6.4 27.4 0.00 1.68 0.00 77 1021.0
20260507061552 11 227 20.9 35.4 0.00 1.68 0.00 78 1020.8
20260507060056 11 238 14.5 24.1 0.00 1.68 0.00 77 1020.6
20260507054544 11 252 11.3 25.7 0.00 1.73 0.00 77 1020.7
20260507053049 11 238 17.7 32.2 0.00 1.73 0.00 76 1020.3
20260507051544 11 230 20.9 33.8 0.00 1.73 0.00 76 1020.3
20260507050044 11 227 17.7 32.2 0.00 1.73 0.00 78 1020.1
20260507044602 11 226 17.7 32.2 0.00 1.85 0.00 77 1019.8
20260507043059 11 252 19.3 32.2 0.00 1.85 0.00 78 1019.7
20260507041544 11 230 19.3 32.2 0.00 1.85 0.00 77 1019.4
20260507040047 11 227 20.9 32.2 0.00 1.85 0.00 77 1019.2
20260507034541 11 227 20.9 38.6 0.00 1.96 0.00 77 1019.0
20260507033040 11 232 22.5 37.0 0.00 1.96 0.00 76 1018.7
20260507031548 11 239 20.9 33.8 0.00 1.96 0.00 77 1018.6
20260507030049 11 238 22.5 33.8 0.00 1.96 0.00 77 1018.2
20260507024550 11 214 11.3 27.4 0.00 2.01 0.00 78 1018.3
20260507023052 11 195 9.7 33.8 0.00 2.01 0.00 77 1018.2
20260507021550 11 244 19.3 32.2 0.00 2.01 0.00 77 1018.0
20260507020051 11 202 14.5 29.0 0.00 2.01 0.00 77 1017.8
20260507014537 11 203 14.5 32.2 0.00 2.26 0.00 77 1017.6
20260507013044 11 216 20.9 35.4 0.00 2.26 0.00 76 1017.5
20260507011547 11 209 11.3 27.4 0.00 2.26 0.00 78 1017.4
20260507010048 11 186 11.3 29.0 0.00 2.26 0.00 79 1017.5
20260507004540 11 231 4.8 14.5 0.00 2.90 0.00 79 1017.4
20260507003049 11 254 9.7 19.3 0.00 2.90 0.00 79 1017.4
20260507001608 11 271 3.2 17.7 0.00 2.90 0.00 79 1017.3
20260507000045 11 219 9.7 20.9 0.00 2.90 0.00 78 1017.3
20260506234540 11 233 19.3 35.4 0.00 5.08 0.00 76 1017.3
20260506233051 11 214 16.1 38.6 0.00 5.08 0.00 77 1017.1
20260506231544 11 215 17.7 35.4 0.00 5.08 0.00 77 1016.9
20260506230056 11 226 22.5 46.7 0.00 5.08 0.00 77 1016.8
20260506224544 11 239 19.3 37.0 0.00 6.25 0.00 78 1016.5
20260506223038 11 210 22.5 40.2 0.00 6.25 0.00 78 1016.3
20260506221603 11 205 19.3 35.4 0.00 6.25 0.00 78 1016.2
20260506220040 11 219 16.1 37.0 0.00 6.25 0.00 79 1015.9
20260506214547 11 221 22.5 38.6 0.00 7.72 6.25 78 1015.6
20260506213043 11 203 16.1 37.0 0.00 7.72 6.25 78 1015.2
20260506211543 11 272 22.5 43.5 0.00 7.72 6.25 78 1014.9